THOR ABLESTAR DEB, 119

Orbit data source: Space-Track

THOR ABLESTAR DEB, 119 is space debris in LEO originally from a launch on Thu, 29 Jun 1961 UTC launched from the Air Force Eastern Test Range (AFETR). Debris objects in space refer to the collection of defunct objects orbiting the Earth. Examples of debris include non-operational satellites, rocket bodies, and fragments generated from explosions, collisions, or faulty payload assembly.

Loading next visibility...
Identifier
119, 1961-015D
Orbit
LEO
Country
Flag of USUS
Related business
Manufacturer
Unknown
Mission
Spacecraft
Bus & Motor
Unknown
Mass
Unknown
Launch date (UTC)
1961-06-29 (64 years ago)
Launch vehicle
Unknown
Launch site
Air Force Eastern Test Range (AFETR)
Object type
Payload
Rocket body
Debris
Shape & HBR
Unknown shape, 0.2 m
Radar Cross Section
Medium (>0.1 m² and <1 m²)

Expand to show TLE details & history
Last TLE update: 21 hours ago

TLE from 21 hours ago
0 THOR ABLESTAR DEB
1   119U 61015D   25312.76234514  .00001924  00000-0  78783-3 0  9991
2   119  66.7265 241.9067 0094216  57.8467 303.1727 14.26906804326861
Epoch: 2025-11-08T18:17Z
TLE epoch observation values (Epoch: 2025-11-08T18:17:46.620Z)
Latitude
0.00001°
Longitude
-80.72485°
Altitude
767.625 km
Speed
7.49 km/s
True Right ascension
16h 07m 37s
True Declination
0° 00' 00"
Sunlit
Object was in daylight at epoch
Visualization orbit readout
Latitude
Unknown
Longitude
Unknown
Altitude
Unknown
Speed
Unknown
Apparent Right ascension
Unknown
Apparent Declination
Unknown
Sunlit
N/A
Visualization observer readout
Local Sidereal Time
11:33:33
Azimuth
Unknown
Elevation
Unknown
Doppler factor
Unknown
Orbital elements
Apogee altitude
868.097 km
Perigee altitude
732.829 km
Semi-major axis
7,178.6 km
Eccentricity
0.00942
Inclination
66.7265°
RAAN
241.9067°
Arg. of periapsis
57.8467°
True anomaly
302.2632°
Mean anomaly
303.1727°
Eccentric anomaly
302.71853°
Mean motion
3.56848 °/min
Orbital period
100.88 mins
BSTAR
0.00078783

Documentation

Showing up to 5 results
|